Location: Sternwarte auf dem Internationalen Platz Vogelsang IP
(50.5721°N, 6.4398°E)
Time: 19:31:58
(UTC+01:00)

A-11 Canister half - Pass Details

Date: 14 December 2025
Orbit: 1511 x 1688 km, 47.2° (Epoch: 19 January)

Event Time Altitude Azimuth Distance (km) Brightness Sun altitude
Rises 14:52:37 0° 213° (SSW) 4,644 14.0 9.7°
Reaches altitude 10° 14:55:53 10° 206° (SSW) 3,675 13.7 9.4°
Maximum altitude 15:04:07 38° 143° (SE) 2,211 10.2 8.6°
Drops below altitude 10° 15:12:35 10° 80° (E) 3,785 10.7 7.8°
Sets 15:15:59 0° 73° (ENE) 4,799 11.1 7.5°
